WB8ZTP Weather Reports


Display with metric or nautical units.
time (UTC)temp
F
wind
direction
speed
MPH
gust
MPH
rain 1hr
in
rain 24hr
in
rain mn
in
humidity
%
barometer
mb
20210309063601 48 0.0 0.0 0.00 0.00 0.00 55 1029.9
20210309061531 48 0.0 0.0 0.00 0.00 0.00 55 1030.1
20210309060359 49 0.0 0.0 0.00 0.00 0.00 53 1030.1
20210309054646 50 0.0 0.0 0.00 0.00 0.00 52 1030.0
20210309053442 50 0.0 0.0 0.00 0.00 0.00 52 1029.8
20210309051729 51 0.0 0.0 0.00 0.00 0.00 52 1029.9
20210309050206 51 0.0 0.0 0.00 0.00 0.00 51 1030.1
20210309044726 51 0.0 0.0 0.00 0.00 0.00 52 1030.2
20210309043500 50 0.0 0.0 0.00 0.00 0.00 53 1030.2
20210309041603 50 0.0 0.0 0.00 0.00 0.00 53 1030.2
20210309034608 50 0.0 0.0 0.00 0.00 0.00 52 1030.2
20210309033133 50 0.0 0.0 0.00 0.00 0.00 53 1030.0
20210309031646 50 0.0 0.0 0.00 0.00 0.00 51 1030.1
20210309030319 51 0.0 0.0 0.00 0.00 0.00 50 1030.1
20210309024627 52 0.0 0.0 0.00 0.00 0.00 49 1030.0
20210309023157 52 0.0 0.0 0.00 0.00 0.00 49 1030.0
20210309021625 52 0.0 0.0 0.00 0.00 0.00 49 1030.0
20210309020128 51 0.0 0.0 0.00 0.00 0.00 50 1030.0
20210309014644 51 0.0 0.0 0.00 0.00 0.00 52 1029.9
20210309013147 51 0.0 0.0 0.00 0.00 0.00 51 1030.0
20210309011537 51 0.0 0.0 0.00 0.00 0.00 51 1030.0
20210309010314 51 0.0 0.0 0.00 0.00 0.00 52 1030.0
20210309004551 50 0.0 0.0 0.00 0.00 0.00 53 1030.0
20210309003145 51 0.0 0.0 0.00 0.00 0.00 51 1029.9
20210309001523 52 0.0 0.0 0.00 0.00 0.00 51 1029.7
20210309000321 53 0.0 0.0 0.00 0.00 0.00 49 1029.8
20210308234727 55 0.0 0.0 0.00 0.00 0.00 47 1029.7
20210308234516 55 0.0 0.0 0.00 0.00 0.00 46 1029.7
20210308233221 56 0.0 0.0 0.00 0.00 0.00 45 1029.7
20210308231848 56 225 1.0 6.0 0.00 0.00 0.00 44 1029.7
20210308230133 57 211 3.0 7.0 0.00 0.00 0.00 42 1029.7
20210308224813 58 230 1.0 8.0 0.00 0.00 0.00 42 1029.6
20210308223244 59 210 3.0 9.0 0.00 0.00 0.00 41 1029.5
20210308221642 59 184 2.0 11.0 0.00 0.00 0.00 42 1029.5
20210308220133 60 269 2.0 9.0 0.00 0.00 0.00 40 1029.5
20210308214605 60 239 9.0 15.0 0.00 0.00 0.00 39 1029.6
20210308213253 60 214 6.0 18.0 0.00 0.00 0.00 40 1029.7
20210308211753 60 214 3.0 13.0 0.00 0.00 0.00 41 1029.9
20210308210129 59 221 6.0 14.0 0.00 0.00 0.00 39 1030.0
20210308204601 59 212 6.0 12.0 0.00 0.00 0.00 41 1030.1
20210308203125 58 229 5.0 14.0 0.00 0.00 0.00 40 1030.2
20210308201611 58 208 6.0 14.0 0.00 0.00 0.00 40 1030.3
20210308200216 58 221 3.0 11.0 0.00 0.00 0.00 39 1030.3
20210308194630 58 246 4.0 11.0 0.00 0.00 0.00 40 1030.4
20210308193055 57 215 7.0 14.0 0.00 0.00 0.00 41 1030.5
20210308191626 57 237 7.0 14.0 0.00 0.00 0.00 40 1030.7
20210308190115 56 207 6.0 12.0 0.00 0.00 0.00 40 1031.0
20210308184546 56 230 7.0 13.0 0.00 0.00 0.00 41 1031.2
20210308183108 54 232 6.0 10.0 0.00 0.00 0.00 41 1031.6
20210308181546 53 227 6.0 13.0 0.00 0.00 0.00 43 1031.9
20210308180033 52 220 3.0 12.0 0.00 0.00 0.00 42 1032.2
20210308174556 52 209 4.0 12.0 0.00 0.00 0.00 41 1032.4
20210308173201 51 234 3.0 15.0 0.00 0.00 0.00 42 1032.6
20210308171555 50 245 5.0 14.0 0.00 0.00 0.00 42 1033.0
20210308170020 50 232 5.0 14.0 0.00 0.00 0.00 42 1033.1
20210308164519 49 205 5.0 16.0 0.00 0.00 0.00 39 1033.3
20210308163008 48 205 6.0 16.0 0.00 0.00 0.00 39 1033.5
20210308161630 47 240 2.0 12.0 0.00 0.00 0.00 40 1033.6
20210308160116 45 213 3.0 10.0 0.00 0.00 0.00 43 1033.8
20210308154650 44 250 3.0 11.0 0.00 0.00 0.00 43 1034.1
20210308153130 42 148 3.0 14.0 0.00 0.00 0.00 46 1034.2
20210308151609 41 224 6.0 14.0 0.00 0.00 0.00 46 1034.4
20210308150113 40 197 2.0 7.0 0.00 0.00 0.00 50 1034.3
20210308144621 38 155 0.0 7.0 0.00 0.00 0.00 55 1034.3
20210308143117 36 194 1.0 6.0 0.00 0.00 0.00 60 1034.5
20210308141604 34 199 1.0 9.0 0.00 0.00 0.00 61 1034.5
20210308140252 33 217 1.0 6.0 0.00 0.00 0.00 61 1034.6
20210308134549 32 167 1.0 7.0 0.00 0.00 0.00 65 1034.6
20210308133248 31 167 0.0 7.0 0.00 0.00 0.00 66 1034.5
20210308131541 30 178 1.0 7.0 0.00 0.00 0.00 69 1034.5
20210308124523 27 0.0 0.0 0.00 0.00 0.00 73 1034.6
20210308122654 25 0.0 0.0 0.00 0.00 0.00 78 1034.5
20210308120303 24 0.0 0.0 0.00 0.00 0.00 80 1034.4
20210308114651 24 0.0 0.0 0.00 0.00 0.00 81 1034.3
20210308113310 23 0.0 0.0 0.00 0.00 0.00 85 1034.3
20210308111618 23 0.0 0.0 0.00 0.00 0.00 85 1034.3
20210308110333 23 0.0 0.0 0.00 0.00 0.00 87 1034.3
20210308104630 22 0.0 0.0 0.00 0.00 0.00 88 1034.2
20210308103112 22 0.0 0.0 0.00 0.00 0.00 89 1034.3
20210308101541 22 0.0 0.0 0.00 0.00 0.00 89 1034.2
20210308100433 22 0.0 0.0 0.00 0.00 0.00 88 1034.1
20210308094535 22 0.0 0.0 0.00 0.00 0.00 88 1034.0
20210308093056 23 0.0 0.0 0.00 0.00 0.00 89 1033.8
20210308091622 22 0.0 0.0 0.00 0.00 0.00 89 1033.7
20210308090245 21 0.0 0.0 0.00 0.00 0.00 89 1033.6
20210308084630 21 0.0 0.0 0.00 0.00 0.00 88 1033.6
20210308083612 21 0.0 0.0 0.00 0.00 0.00 89 1033.6
20210308081619 21 0.0 0.0 0.00 0.00 0.00 88 1033.5
20210308080121 21 0.0 0.0 0.00 0.00 0.00 86 1033.5
20210308074616 22 0.0 0.0 0.00 0.00 0.00 86 1033.6
20210308073120 22 0.0 0.0 0.00 0.00 0.00 87 1033.6
20210308071635 22 0.0 0.0 0.00 0.00 0.00 86 1033.6
20210308070128 22 0.0 0.0 0.00 0.00 0.00 86 1033.6
20210308064540 23 0.0 0.0 0.00 0.00 0.00 86 1033.6